Roseburg, OR

12:56 PM PST on November 13, 2019 (GMT -0800)
Roseburg Regional

Weather History for KRBG - September, 2019

Change the Weather History Date:

Thursday, September 19, 2019

  Actual Average Record
Temperature  
Mean Temperature 64 °F 64 °F  
Max Temperature 72 °F 78 °F 95 °F (1939)
Min Temperature 56 °F 51 °F 34 °F (1965)
Degree Days  
Heating Degree Days 1 2  
Month to date heating degree days 22 26  
Since 1 July heating degree days 27 47  
Cooling Degree Days 0 2  
Month to date cooling degree days 70 54  
Year to date cooling degree days 673 465  
Growing Degree Days 13 (Base 50)    
Moisture  
Dew Point 53 °F    
Average Humidity 67    
Maximum Humidity 93    
Minimum Humidity 41    
Precipitation  
Precipitation T in 0.04 in 0.65 in (2010)
Month to date precipitation 2.05 0.51  
Year to date precipitation 24.82 20.16  
Sea Level Pressure  
Sea Level Pressure 30.07 in    
Wind  
Wind Speed 3 mph (North)    
Max Wind Speed 12 mph    
Max Gust Speed 16 mph    
Visibility 10 miles    
Events Rain    
T = Trace of Precipitation, MM = Missing Value Source: NWS Daily Summary

Daily Weather History Graph

Daily Weather History Graph

Search for Another Location

Airport or City:

Astronomy

Sep. 19, 2019 Rise Set
Actual Time 6:57 AM PDT 7:16 PM PDT
Civil Twilight 6:28 AM PDT 7:44 PM PDT
Nautical Twilight 5:55 AM PDT 8:18 PM PDT
Astronomical Twilight 5:20 AM PDT 8:52 PM PDT
Moon 10:20 PM PDT (9/19) 12:14 PM PDT (9/19)
Length of Visible Light 13h 16m
Length of Day
12h 19m
Waning Gibbous, 73% of the Moon is Illuminated
Sep 19
Waning Gibbous
Sep 21
Last Quarter
Sep 28
New
Oct 5
First Quarter
Oct 13
Full

Hourly Weather History & Observations

Time (PDT) Temp. Dew Point Humidity Pressure Visibility Wind Dir Wind Speed Gust Speed Precip Events Conditions
12:53 AM 57.0 °F 55.0 °F 93% 30.00 in 10.0 mi Calm Calm - 0.01 in   Overcast
1:53 AM 57.0 °F 55.0 °F 93% 30.01 in 10.0 mi Calm Calm - N/A   Overcast
2:21 AM 57.0 °F 55.0 °F 93% 30.02 in 10.0 mi Calm Calm - N/A   Overcast
2:53 AM 57.0 °F 55.0 °F 93% 30.02 in 10.0 mi Calm Calm - N/A   Overcast
3:17 AM 57.0 °F 54.0 °F 89% 30.03 in 10.0 mi Calm Calm - N/A   Overcast
3:39 AM 55.9 °F 54.0 °F 93% 30.03 in 10.0 mi Calm Calm - N/A   Overcast
3:53 AM 55.9 °F 54.0 °F 93% 30.03 in 10.0 mi Calm Calm - N/A   Overcast
4:53 AM 55.9 °F 54.0 °F 93% 30.04 in 10.0 mi Calm Calm - N/A   Overcast
5:53 AM 55.9 °F 54.0 °F 93% 30.04 in 10.0 mi Calm Calm - N/A   Overcast
6:06 AM 55.9 °F 54.0 °F 93% 30.05 in 10.0 mi Calm Calm - N/A   Overcast
6:53 AM 55.9 °F 54.0 °F 93% 30.06 in 10.0 mi Calm Calm - N/A   Overcast
7:14 AM 55.9 °F 54.0 °F 93% 30.07 in 10.0 mi Calm Calm - N/A   Overcast
7:38 AM 55.9 °F 54.0 °F 93% 30.07 in 10.0 mi SSW 3.5 mph - N/A   Mostly Cloudy
7:44 AM 55.9 °F 54.0 °F 93% 30.08 in 10.0 mi Calm Calm - N/A   Mostly Cloudy
7:53 AM 55.9 °F 54.0 °F 93% 30.08 in 10.0 mi Calm Calm - N/A   Scattered Clouds
8:32 AM 57.0 °F 54.0 °F 89% 30.09 in 10.0 mi Calm Calm - N/A   Overcast
8:53 AM 57.0 °F 54.0 °F 89% 30.09 in 10.0 mi Calm Calm - N/A   Overcast
9:26 AM 59.0 °F 54.0 °F 83% 30.09 in 10.0 mi North 6.9 mph - N/A   Scattered Clouds
9:53 AM 61.0 °F 53.1 °F 75% 30.10 in 10.0 mi Calm Calm - N/A   Mostly Cloudy
10:03 AM 62.1 °F 54.0 °F 75% 30.09 in 10.0 mi North 3.5 mph - N/A   Mostly Cloudy
10:53 AM 62.1 °F 53.1 °F 72% 30.10 in 10.0 mi WNW 3.5 mph - N/A   Overcast
11:15 AM 62.1 °F 52.0 °F 70% 30.11 in 10.0 mi North 6.9 mph - N/A   Mostly Cloudy
11:53 AM 64.9 °F 52.0 °F 63% 30.10 in 10.0 mi North 6.9 mph - N/A   Scattered Clouds
12:53 PM 66.9 °F 50.0 °F 54% 30.10 in 10.0 mi North 8.1 mph - N/A   Scattered Clouds
1:53 PM 68.0 °F 50.0 °F 52% 30.09 in 10.0 mi ENE 5.8 mph - N/A   Scattered Clouds
2:53 PM 70.0 °F 48.0 °F 46% 30.08 in 10.0 mi North 8.1 mph - N/A   Mostly Cloudy
3:53 PM 70.0 °F 48.9 °F 47% 30.07 in 10.0 mi NNW 6.9 mph - N/A   Mostly Cloudy
4:53 PM 71.1 °F 46.9 °F 42% 30.07 in 10.0 mi NNW 9.2 mph - N/A   Mostly Cloudy
5:53 PM 70.0 °F 48.9 °F 47% 30.07 in 10.0 mi NNW 5.8 mph - N/A   Partly Cloudy
6:53 PM 68.0 °F 50.0 °F 52% 30.07 in 10.0 mi North 4.6 mph - N/A   Clear
7:53 PM 64.0 °F 52.0 °F 65% 30.09 in 10.0 mi Calm Calm - N/A   Clear
8:53 PM 61.0 °F 52.0 °F 72% 30.10 in 10.0 mi North 5.8 mph - N/A   Clear
9:53 PM 59.0 °F 53.1 °F 81% 30.10 in 10.0 mi NNE 3.5 mph - N/A   Mostly Cloudy
10:53 PM 57.0 °F 53.1 °F 87% 30.10 in 10.0 mi Calm Calm - N/A   Partly Cloudy
11:53 PM 57.9 °F 53.1 °F 84% 30.11 in 10.0 mi Calm Calm - 0.00 in Rain Light Rain